Time,TemperatureF,DewpointF,PressureIn,WindDirection,WindDirectionDegrees,WindSpeedMPH,WindSpeedGustMPH,Humidity,HourlyPrecipIn,Conditions,Clouds,dailyrainin,SolarRadiationWatts/m^2,SoftwareType,DateUTC
2013-04-27 00:12:00,65.6,62.0,30.27,ENE,57,0.0,8.0,87,0.00,,,0.00,0,weatherlink.com 1.10,2013-04-27 04:12:00,
2013-04-27 00:27:00,65.6,62.0,30.26,ENE,63,4.0,7.0,87,0.00,,,0.00,0,weatherlink.com 1.10,2013-04-27 04:27:00,
2013-04-27 00:42:00,65.6,62.0,30.25,East,81,1.0,5.0,88,0.00,,,0.00,0,weatherlink.com 1.10,2013-04-27 04:42:00,
2013-04-27 00:57:00,65.5,62.0,30.25,ENE,70,1.0,5.0,89,0.00,,,0.00,0,weatherlink.com 1.10,2013-04-27 04:57:00,
2013-04-27 01:12:00,65.2,62.0,30.24,ENE,70,1.0,3.0,89,0.00,,,0.00,0,weatherlink.com 1.10,2013-04-27 05:12:00,
2013-04-27 01:27:00,64.9,62.0,30.24,ENE,70,0.0,3.0,91,0.00,,,0.00,0,weatherlink.com 1.10,2013-04-27 05:27:00,
2013-04-27 01:42:00,64.4,62.0,30.23,ENE,70,0.0,1.0,90,0.00,,,0.00,0,weatherlink.com 1.10,2013-04-27 05:42:00,
2013-04-27 01:57:00,63.7,61.0,30.23,ENE,70,0.0,0.0,91,0.00,,,0.00,0,weatherlink.com 1.10,2013-04-27 05:57:00,
2013-04-27 02:12:00,63.0,60.0,30.23,ENE,70,0.0,0.0,91,0.00,,,0.00,0,weatherlink.com 1.10,2013-04-27 06:12:00,
2013-04-27 02:27:00,62.2,60.0,30.22,ENE,70,0.0,0.0,93,0.00,,,0.00,0,weatherlink.com 1.10,2013-04-27 06:27:00,
2013-04-27 02:42:00,61.6,60.0,30.22,ENE,70,0.0,0.0,93,0.00,,,0.00,0,weatherlink.com 1.10,2013-04-27 06:42:00,
2013-04-27 02:57:00,61.1,59.0,30.22,ENE,70,0.0,0.0,94,0.00,,,0.00,0,weatherlink.com 1.10,2013-04-27 06:57:00,
2013-04-27 03:12:00,61.0,60.0,30.22,ENE,70,0.0,0.0,96,0.00,,,0.00,0,weatherlink.com 1.10,2013-04-27 07:12:00,
2013-04-27 03:27:00,60.8,59.0,30.23,ENE,70,0.0,0.0,95,0.00,,,0.00,0,weatherlink.com 1.10,2013-04-27 07:27:00,
2013-04-27 03:42:00,60.7,60.0,30.23,ENE,70,0.0,0.0,96,0.00,,,0.00,0,weatherlink.com 1.10,2013-04-27 07:42:00,
2013-04-27 03:57:00,60.5,59.0,30.23,ENE,70,0.0,0.0,96,0.00,,,0.00,0,weatherlink.com 1.10,2013-04-27 07:57:00,
2013-04-27 04:12:00,60.5,59.0,30.23,ENE,70,0.0,0.0,96,0.00,,,0.00,0,weatherlink.com 1.10,2013-04-27 08:12:00,
2013-04-27 04:28:00,60.2,59.0,30.23,ENE,70,0.0,0.0,96,0.00,,,0.00,0,weatherlink.com 1.10,2013-04-27 08:28:00,
2013-04-27 04:43:00,60.1,59.0,30.23,ENE,70,0.0,0.0,96,0.00,,,0.00,0,weatherlink.com 1.10,2013-04-27 08:43:00,
2013-04-27 04:58:00,60.0,59.0,30.23,ENE,70,0.0,2.0,96,0.00,,,0.00,0,weatherlink.com 1.10,2013-04-27 08:58:00,
2013-04-27 05:13:00,60.0,59.0,30.23,ENE,70,0.0,0.0,97,0.00,,,0.00,0,weatherlink.com 1.10,2013-04-27 09:13:00,
2013-04-27 05:28:00,59.8,59.0,30.23,ENE,70,0.0,0.0,96,0.00,,,0.00,0,weatherlink.com 1.10,2013-04-27 09:28:00,
2013-04-27 05:43:00,59.7,59.0,30.23,ENE,70,0.0,0.0,97,0.00,,,0.00,0,weatherlink.com 1.10,2013-04-27 09:43:00,
2013-04-27 05:58:00,59.6,59.0,30.23,ENE,70,0.0,0.0,97,0.00,,,0.00,0,weatherlink.com 1.10,2013-04-27 09:58:00,
2013-04-27 06:13:00,59.5,59.0,30.23,ENE,70,0.0,0.0,97,0.00,,,0.00,0,weatherlink.com 1.10,2013-04-27 10:13:00,
2013-04-27 06:28:00,59.5,59.0,30.23,ENE,70,0.0,2.0,97,0.00,,,0.00,0,weatherlink.com 1.10,2013-04-27 10:28:00,
2013-04-27 06:43:00,59.8,59.0,30.23,ENE,70,0.0,4.0,98,0.00,,,0.00,0,weatherlink.com 1.10,2013-04-27 10:43:00,
2013-04-27 06:58:00,61.0,61.0,30.23,ENE,70,2.0,4.0,98,0.00,,,0.00,16,weatherlink.com 1.10,2013-04-27 10:58:00,
2013-04-27 07:13:00,62.0,62.0,30.24,NNE,28,6.0,6.0,98,0.00,,,0.00,28,weatherlink.com 1.10,2013-04-27 11:13:00,
2013-04-27 07:28:00,62.9,62.0,30.24,ENE,72,4.0,9.0,97,0.00,,,0.00,44,weatherlink.com 1.10,2013-04-27 11:28:00,
2013-04-27 07:43:00,63.9,62.0,30.25,ENE,62,4.0,7.0,94,0.00,,,0.00,58,weatherlink.com 1.10,2013-04-27 11:43:00,
2013-04-27 07:58:00,65.0,62.0,30.25,NE,51,3.0,11.0,91,0.00,,,0.00,69,weatherlink.com 1.10,2013-04-27 11:58:00,
2013-04-27 08:13:00,66.3,63.0,30.24,ENE,57,2.0,5.0,89,0.00,,,0.00,67,weatherlink.com 1.10,2013-04-27 12:13:00,
2013-04-27 08:28:00,67.8,64.0,30.25,NNE,32,0.0,9.0,87,0.00,,,0.00,84,weatherlink.com 1.10,2013-04-27 12:28:00,
2013-04-27 08:43:00,69.0,64.0,30.26,NE,45,5.0,7.0,84,0.00,,,0.00,100,weatherlink.com 1.10,2013-04-27 12:43:00,
2013-04-27 08:58:00,70.7,64.0,30.26,NE,43,7.0,12.0,80,0.00,,,0.00,378,weatherlink.com 1.10,2013-04-27 12:58:00,
2013-04-27 09:13:00,72.5,65.0,30.26,ENE,76,3.0,10.0,76,0.00,,,0.00,454,weatherlink.com 1.10,2013-04-27 13:13:00,
2013-04-27 09:28:00,73.7,65.0,30.26,ENE,63,6.0,12.0,73,0.00,,,0.00,438,weatherlink.com 1.10,2013-04-27 13:28:00,
2013-04-27 09:43:00,74.5,65.0,30.26,NNE,33,8.0,12.0,72,0.00,,,0.00,543,weatherlink.com 1.10,2013-04-27 13:43:00,
2013-04-27 09:58:00,75.1,64.0,30.27,NE,49,6.0,12.0,69,0.00,,,0.00,571,weatherlink.com 1.10,2013-04-27 13:58:00,
2013-04-27 10:13:00,75.5,64.0,30.27,NE,42,2.0,12.0,68,0.00,,,0.00,664,weatherlink.com 1.10,2013-04-27 14:13:00,
2013-04-27 10:28:00,76.2,64.0,30.27,ENE,64,8.0,14.0,66,0.00,,,0.00,717,weatherlink.com 1.10,2013-04-27 14:28:00,
2013-04-27 10:44:00,76.5,64.0,30.27,East,98,11.0,14.0,66,0.00,,,0.00,763,weatherlink.com 1.10,2013-04-27 14:44:00,
2013-04-27 10:59:00,76.6,63.0,30.27,ENE,72,6.0,13.0,63,0.00,,,0.00,733,weatherlink.com 1.10,2013-04-27 14:59:00,
2013-04-27 11:14:00,77.0,62.0,30.27,NNE,32,3.0,14.0,61,0.00,,,0.00,828,weatherlink.com 1.10,2013-04-27 15:14:00,
2013-04-27 11:29:00,77.6,63.0,30.27,ENE,63,10.0,12.0,62,0.00,,,0.00,921,weatherlink.com 1.10,2013-04-27 15:29:00,
2013-04-27 11:44:00,78.4,63.0,30.27,NE,36,9.0,13.0,60,0.00,,,0.00,865,weatherlink.com 1.10,2013-04-27 15:44:00,
2013-04-27 11:59:00,79.1,64.0,30.27,East,86,5.0,10.0,61,0.00,,,0.00,933,weatherlink.com 1.10,2013-04-27 15:59:00,
2013-04-27 12:14:00,79.4,65.0,30.26,East,84,2.0,11.0,61,0.00,,,0.00,967,weatherlink.com 1.10,2013-04-27 16:14:00,
2013-04-27 12:29:00,79.2,65.0,30.25,ESE,108,2.0,11.0,63,0.00,,,0.00,972,weatherlink.com 1.10,2013-04-27 16:29:00,
2013-04-27 12:44:00,79.2,65.0,30.24,East,82,7.0,13.0,62,0.00,,,0.00,977,weatherlink.com 1.10,2013-04-27 16:44:00,
2013-04-27 12:59:00,79.2,65.0,30.24,East,96,10.0,12.0,61,0.00,,,0.00,986,weatherlink.com 1.10,2013-04-27 16:59:00,
2013-04-27 13:14:00,79.3,63.0,30.24,ENE,70,3.0,12.0,57,0.00,,,0.00,1009,weatherlink.com 1.10,2013-04-27 17:14:00,
2013-04-27 13:29:00,79.5,61.0,30.23,NE,53,4.0,11.0,54,0.00,,,0.00,1000,weatherlink.com 1.10,2013-04-27 17:29:00,
2013-04-27 13:44:00,79.4,63.0,30.23,ENE,76,3.0,12.0,57,0.00,,,0.00,979,weatherlink.com 1.10,2013-04-27 17:44:00,
2013-04-27 13:59:00,79.5,62.0,30.23,SE,126,3.0,9.0,55,0.00,,,0.00,990,weatherlink.com 1.10,2013-04-27 17:59:00,
2013-04-27 14:14:00,79.4,63.0,30.22,SE,127,3.0,11.0,57,0.00,,,0.00,984,weatherlink.com 1.10,2013-04-27 18:14:00,
2013-04-27 14:29:00,80.3,62.0,30.22,ESE,105,7.0,11.0,53,0.00,,,0.00,965,weatherlink.com 1.10,2013-04-27 18:29:00,
2013-04-27 14:44:00,79.7,63.0,30.22,ENE,61,2.0,10.0,57,0.00,,,0.00,928,weatherlink.com 1.10,2013-04-27 18:44:00,
2013-04-27 14:59:00,79.1,61.0,30.21,NE,53,5.0,12.0,55,0.00,,,0.00,914,weatherlink.com 1.10,2013-04-27 18:59:00,
2013-04-27 15:14:00,79.9,64.0,30.21,East,89,1.0,8.0,58,0.00,,,0.00,891,weatherlink.com 1.10,2013-04-27 19:14:00,
2013-04-27 15:29:00,80.2,59.0,30.21,ENE,69,5.0,13.0,49,0.00,,,0.00,847,weatherlink.com 1.10,2013-04-27 19:29:00,
2013-04-27 15:44:00,80.8,60.0,30.20,ENE,69,3.0,10.0,49,0.00,,,0.00,826,weatherlink.com 1.10,2013-04-27 19:44:00,
2013-04-27 15:59:00,80.5,64.0,30.20,NE,54,1.0,8.0,57,0.00,,,0.00,784,weatherlink.com 1.10,2013-04-27 19:59:00,
2013-04-27 16:14:00,79.8,61.0,30.19,SSE,148,6.0,10.0,53,0.00,,,0.00,740,weatherlink.com 1.10,2013-04-27 20:14:00,
2013-04-27 16:29:00,79.7,63.0,30.19,SE,143,2.0,9.0,57,0.00,,,0.00,694,weatherlink.com 1.10,2013-04-27 20:29:00,
2013-04-27 16:44:00,79.5,61.0,30.19,ESE,107,4.0,12.0,54,0.00,,,0.00,647,weatherlink.com 1.10,2013-04-27 20:44:00,
2013-04-27 16:59:00,79.5,63.0,30.19,NE,36,2.0,9.0,57,0.00,,,0.00,596,weatherlink.com 1.10,2013-04-27 20:59:00,
2013-04-27 17:14:00,79.3,60.0,30.19,East,91,8.0,12.0,51,0.00,,,0.00,545,weatherlink.com 1.10,2013-04-27 21:14:00,
2013-04-27 17:29:00,79.1,59.0,30.19,ENE,74,3.0,12.0,50,0.00,,,0.00,487,weatherlink.com 1.10,2013-04-27 21:29:00,
2013-04-27 17:44:00,78.7,58.0,30.19,ENE,63,6.0,12.0,50,0.00,,,0.00,436,weatherlink.com 1.10,2013-04-27 21:44:00,
2013-04-27 17:59:00,78.0,58.0,30.19,East,94,3.0,10.0,51,0.00,,,0.00,374,weatherlink.com 1.10,2013-04-27 21:59:00,
2013-04-27 18:14:00,77.4,59.0,30.18,NE,54,3.0,9.0,53,0.00,,,0.00,316,weatherlink.com 1.10,2013-04-27 22:14:00,
2013-04-27 18:29:00,77.1,60.0,30.18,East,95,4.0,6.0,56,0.00,,,0.00,260,weatherlink.com 1.10,2013-04-27 22:29:00,
2013-04-27 18:44:00,76.4,61.0,30.18,East,82,1.0,9.0,60,0.00,,,0.00,204,weatherlink.com 1.10,2013-04-27 22:44:00,
2013-04-27 18:59:00,75.1,61.0,30.18,NE,49,0.0,10.0,61,0.00,,,0.00,141,weatherlink.com 1.10,2013-04-27 22:59:00,
2013-04-27 19:14:00,73.6,60.0,30.18,NE,44,3.0,10.0,62,0.00,,,0.00,40,weatherlink.com 1.10,2013-04-27 23:14:00,
2013-04-27 19:29:00,72.1,61.0,30.18,ENE,62,0.0,9.0,69,0.00,,,0.00,28,weatherlink.com 1.10,2013-04-27 23:29:00,
2013-04-27 19:44:00,71.2,63.0,30.18,ENE,70,4.0,6.0,74,0.00,,,0.00,16,weatherlink.com 1.10,2013-04-27 23:44:00,
2013-04-27 19:59:00,70.2,63.0,30.18,ENE,57,0.0,5.0,77,0.00,,,0.00,5,weatherlink.com 1.10,2013-04-27 23:59:00,
2013-04-27 20:15:00,69.3,63.0,30.18,NE,40,1.0,7.0,80,0.00,,,0.00,0,weatherlink.com 1.10,2013-04-28 00:15:00,
2013-04-27 20:30:00,68.7,63.0,30.18,NE,40,4.0,7.0,81,0.00,,,0.00,0,weatherlink.com 1.10,2013-04-28 00:30:00,
2013-04-27 20:45:00,68.2,63.0,30.18,NE,47,1.0,5.0,84,0.00,,,0.00,0,weatherlink.com 1.10,2013-04-28 00:45:00,
2013-04-27 21:00:00,67.7,63.0,30.18,NE,47,0.0,4.0,85,0.00,,,0.00,0,weatherlink.com 1.10,2013-04-28 01:00:00,
2013-04-27 21:15:00,67.3,63.0,30.18,NE,47,4.0,4.0,86,0.00,,,0.00,0,weatherlink.com 1.10,2013-04-28 01:15:00,
2013-04-27 21:30:00,67.2,63.0,30.18,NE,46,0.0,4.0,87,0.00,,,0.00,0,weatherlink.com 1.10,2013-04-28 01:30:00,
2013-04-27 21:45:00,67.0,63.0,30.18,NE,46,0.0,4.0,86,0.00,,,0.00,0,weatherlink.com 1.10,2013-04-28 01:45:00,
2013-04-27 22:00:00,66.7,62.0,30.19,NE,49,0.0,4.0,86,0.00,,,0.00,0,weatherlink.com 1.10,2013-04-28 02:00:00,
2013-04-27 22:15:00,66.6,63.0,30.18,ENE,70,0.0,2.0,88,0.00,,,0.00,0,weatherlink.com 1.10,2013-04-28 02:15:00,
2013-04-27 22:30:00,66.7,63.0,30.19,NE,55,0.0,7.0,89,0.00,,,0.00,0,weatherlink.com 1.10,2013-04-28 02:30:00,
2013-04-27 22:45:00,67.3,64.0,30.18,ENE,73,7.0,8.0,88,0.00,,,0.00,0,weatherlink.com 1.10,2013-04-28 02:45:00,
2013-04-27 23:00:00,68.0,65.0,30.18,East,88,0.0,8.0,89,0.00,,,0.00,0,weatherlink.com 1.10,2013-04-28 03:00:00,
2013-04-27 23:15:00,68.1,65.0,30.18,East,83,3.0,6.0,89,0.00,,,0.00,0,weatherlink.com 1.10,2013-04-28 03:15:00,
2013-04-27 23:30:00,68.0,65.0,30.18,East,89,2.0,7.0,89,0.00,,,0.00,0,weatherlink.com 1.10,2013-04-28 03:30:00,
2013-04-27 23:45:00,67.9,65.0,30.19,East,92,0.0,6.0,89,0.00,,,0.00,0,weatherlink.com 1.10,2013-04-28 03:45:00,